Home   Weather   Santa Ana   Past weeks

Flag for El Salvador Past Weather in Santa Ana, El Salvador — Yesterday and Last 2 Weeks

Now
77 °F

Passing clouds.


Feels Like: 78 °F
Forecast: 65 / 88 °F
Wind: 2 mph from South

Location: San Salvador / Ilopango

Current Time: Sep 28, 2016 at 7:43:48 PM

Latest Report: Sep 28, 2016 at 6:50 PM


Visibility: N/A

Pressure: 29.98 "Hg (27.83 "Hg at 650m altitude)

Humidity: 89%

Dew Point: 73 °F

Location of Santa AnaLocation

Past Weather in Santa Ana — Graph

°F

Santa Ana Temperature Yesterday

Maximum temperature yesterday: 84 °F (at 1:50 PM)
Minimum temperature yesterday: 70 °F (at 5:50 AM)
Average temperature yesterday: 76 °F

High & Low Weather Summary for the Past Weeks

 TemperatureHumidityPressure
High90 °F (Sep 19, 2:50 PM)100% (Sep 13, 9:50 PM)30.07 "Hg (Sep 13, 9:50 PM)
Low68 °F (Sep 16, 10:50 PM)46% (Sep 28, 2:50 PM)29.86 "Hg (Sep 28, 8:50 AM)
Average77 °F84%29.98 "Hg
* Reported Sep 13 5:50 PM — Sep 28 5:50 PM, Santa Ana, Weather by CustomWeather, © 2016

Note: Actual official high and low records may vary slightly from our data, if they occured in-between our weather recording intervals... More about our weather records

Advertising

Santa Ana Weather History for the Previous 24 Hours

Scroll right to see more
 ConditionsComfort  
Time TempWeatherWind HumidityBarometerVisibility
5:50 PM
Wed, Sep 28
81 °FPassing clouds.7 mph84%29.98 "HgN/A
4:50 PM82 °FPassing clouds.12 mph74%29.98 "HgN/A
3:50 PM86 °FPassing clouds.12 mph59%29.98 "HgN/A
2:50 PM86 °FPassing clouds.8 mph46%29.98 "HgN/A
1:50 PM88 °FScattered clouds.6 mph52%30.01 "HgN/A
12:50 PM86 °FScattered clouds.12 mph59%30.01 "HgN/A
11:50 AM82 °FScattered clouds.5 mph74%30.04 "HgN/A
10:50 AM82 °FScattered clouds.5 mph66%30.04 "HgN/A
9:50 AM81 °FScattered clouds.5 mph74%30.07 "HgN/A
8:50 AM77 °FPassing clouds.12 mph79%29.86 "HgN/A
7:50 AM72 °FPassing clouds.6 mph94%30.01 "HgN/A
6:50 AM72 °FPassing clouds.No wind94%30.01 "HgN/A
5:50 AM70 °FPassing clouds.No wind100%29.98 "HgN/A
11:50 PM
Tue, Sep 27
72 °FClear.No wind94%30.01 "Hg10 mi
10:50 PM72 °FClear.No wind94%30.01 "Hg10 mi
9:50 PM73 °FClear.No wind94%30.01 "Hg10 mi
8:50 PM73 °FClear.No wind94%29.98 "Hg10 mi
7:50 PM73 °FClear.No wind94%29.98 "Hg10 mi
Weather by CustomWeather, © 2016

See weather overviewHow to use our weather pages